Weather History for Keene, NH

Change the Weather History Date:

Thursday, February 7, 2013

  Actual Average Record
Temperature  
Mean Temperature 17 °F -  
Max Temperature 26 °F 30 °F 53 °F (2005)
Min Temperature 8 °F 7 °F -25 °F (1934)
Degree Days  
Heating Degree Days 48    
Moisture  
Dew Point 0 °F    
Average Humidity 42    
Maximum Humidity 73    
Minimum Humidity 29    
Precipitation  
Precipitation 0.00 in - - ()
Sea Level Pressure  
Sea Level Pressure 30.43 in    
Wind  
Wind Speed 3 mph (North)    
Max Wind Speed 10 mph    
Max Gust Speed -    
Visibility 10 miles    
Events      
Averages and records for this station are not official NWS values.
T = Trace of Precipitation, MM = Missing Value Source: NWS Daily Summary

Daily Weather History Graph

Daily Weather History Graph

Search for Another Location

Airport:

Trip Planner

Search our weather history database for the weather conditions in past years. The results will help you decide how hot, cold, wet, or windy it might be!

Date:

Astronomy

Feb. 07, 2013 Rise Set
Actual Time 6:56 AM EST 5:10 PM EST
Civil Twilight 6:27 AM EST 5:39 PM EST
Nautical Twilight 5:53 AM EST 6:13 PM EST
Astronomical Twilight 5:20 AM EST 6:46 PM EST
Moon 4:36 AM EST (2/7) 2:29 PM EST (2/7)
Length of Visible Light 11h 12m
Length of Day
10h 13m
Waning Crescent, 9% of the Moon is Illuminated
Feb 7
Waning Crescent
Feb 10
New
Feb 17
First Quarter
Feb 25
Full
Mar 4
Last Quarter

Hourly Weather History & Observations

Time (EST) Temp. Windchill Dew Point Humidity Pressure Visibility Wind Dir Wind Speed Gust Speed Precip Events Conditions
12:15 AM 21.2 °F - 1.4 °F 42% 30.29 in 10.0 mi Calm Calm - N/A   Clear
12:35 AM 19.4 °F 11.5 °F 1.4 °F 46% 30.30 in 10.0 mi North 5.8 mph - N/A   Clear
12:55 AM 19.4 °F 14.3 °F 1.4 °F 46% 30.30 in 10.0 mi NNW 3.5 mph - N/A   Clear
1:35 AM 17.6 °F 12.3 °F 1.4 °F 49% 30.31 in 10.0 mi NW 3.5 mph - N/A   Clear
1:55 AM 17.6 °F 10.7 °F 1.4 °F 49% 30.32 in 10.0 mi NW 4.6 mph - N/A   Clear
2:15 AM 17.6 °F 12.3 °F -0.4 °F 45% 30.32 in 10.0 mi ENE 3.5 mph - N/A   Clear
2:35 AM 15.8 °F - 1.4 °F 53% 30.32 in 10.0 mi Calm Calm - N/A   Clear
2:55 AM 15.8 °F - 1.4 °F 53% 30.32 in 10.0 mi Calm Calm - N/A   Clear
3:15 AM 15.8 °F - 1.4 °F 53% 30.34 in 10.0 mi Calm Calm - N/A   Clear
3:35 AM 14.0 °F - -0.4 °F 53% 30.35 in 10.0 mi Calm Calm - N/A   Clear
3:55 AM 14.0 °F - 1.4 °F 57% 30.36 in 10.0 mi Calm Calm - N/A   Clear
4:15 AM 15.8 °F 8.6 °F 1.4 °F 53% 30.38 in 10.0 mi NNW 4.6 mph - N/A   Clear
4:35 AM 15.8 °F 7.2 °F -2.2 °F 45% 30.38 in 10.0 mi North 5.8 mph - N/A   Clear
4:55 AM 14.0 °F 6.5 °F -2.2 °F 49% 30.38 in 10.0 mi NNE 4.6 mph - N/A   Clear
5:15 AM 12.2 °F 6.1 °F -0.4 °F 57% 30.39 in 10.0 mi North 3.5 mph - N/A   Clear
5:35 AM 12.2 °F 2.9 °F -0.4 °F 57% 30.39 in 10.0 mi North 5.8 mph - N/A   Clear
5:55 AM 12.2 °F 1.7 °F -0.4 °F 57% 30.39 in 10.0 mi North 6.9 mph - N/A   Clear
6:15 AM 12.2 °F - -0.4 °F 57% 30.40 in 10.0 mi North - - N/A   Clear
6:35 AM 14.0 °F 6.5 °F -0.4 °F 53% 30.41 in 10.0 mi North 4.6 mph - N/A   Clear
6:55 AM 8.6 °F 2.0 °F -4.0 °F 57% 30.43 in 10.0 mi SSW 3.5 mph - N/A   Clear
7:15 AM 8.6 °F - 1.4 °F 73% 30.45 in 10.0 mi Calm Calm - N/A   Clear
7:35 AM 10.4 °F - 1.4 °F 67% 30.46 in 10.0 mi Calm Calm - N/A   Clear
7:55 AM 10.4 °F - 1.4 °F 67% 30.47 in 10.0 mi Calm Calm - N/A   Clear
8:15 AM 14.0 °F 2.9 °F 3.2 °F 62% 30.48 in 10.0 mi North 8.1 mph - N/A   Clear
8:35 AM 15.8 °F 3.4 °F -0.4 °F 49% 30.49 in 10.0 mi North 10.4 mph - N/A   Clear
8:55 AM 15.8 °F 5.1 °F -0.4 °F 49% 30.50 in 10.0 mi North 8.1 mph - N/A   Clear
9:15 AM 15.8 °F 5.1 °F -0.4 °F 49% 30.50 in 10.0 mi North 8.1 mph - N/A   Clear
9:35 AM 15.8 °F 7.2 °F -2.2 °F 45% 30.50 in 10.0 mi North 5.8 mph - N/A   Clear
9:55 AM 17.6 °F 10.7 °F -2.2 °F 42% 30.51 in 10.0 mi NNE 4.6 mph - N/A   Clear
10:15 AM 17.6 °F 9.3 °F -0.4 °F 45% 30.51 in 10.0 mi North 5.8 mph - N/A   Clear
10:35 AM 19.4 °F 10.4 °F -0.4 °F 42% 30.52 in 10.0 mi North 6.9 mph - N/A   Clear
10:55 AM 19.4 °F 12.8 °F -2.2 °F 39% 30.53 in 10.0 mi North 4.6 mph - N/A   Clear
11:15 AM 19.4 °F - -2.2 °F 39% 30.52 in 10.0 mi Calm Calm - N/A   Clear
11:35 AM 19.4 °F 14.3 °F -2.2 °F 39% 30.51 in 10.0 mi NW 3.5 mph - N/A   Clear
11:55 AM 21.2 °F 12.6 °F -0.4 °F 39% 30.50 in 10.0 mi North 6.9 mph - N/A   Clear
12:15 PM 21.2 °F 10.9 °F -0.4 °F 39% 30.49 in 10.0 mi NNE 9.2 mph - N/A   Clear
12:35 PM 23.0 °F 18.4 °F -0.4 °F 36% 30.48 in 10.0 mi North 3.5 mph - N/A   Clear
12:55 PM 24.8 °F 16.1 °F -0.4 °F 34% 30.47 in 10.0 mi North 8.1 mph - N/A   Clear
1:15 PM 24.8 °F 16.1 °F -0.4 °F 34% 30.47 in 10.0 mi NW 8.1 mph - N/A   Scattered Clouds
1:35 PM 24.8 °F 20.5 °F -0.4 °F 34% 30.46 in 10.0 mi North 3.5 mph - N/A   Scattered Clouds
1:55 PM 24.8 °F 19.1 °F -0.4 °F 34% 30.45 in 10.0 mi NNW 4.6 mph - N/A   Mostly Cloudy
2:15 PM 24.8 °F - -0.4 °F 34% 30.45 in 10.0 mi Calm Calm - N/A   Overcast
2:35 PM 24.8 °F - -0.4 °F 34% 30.45 in 10.0 mi Calm Calm - N/A   Overcast
2:55 PM 26.6 °F - -0.4 °F 31% 30.45 in 10.0 mi Calm Calm - N/A   Overcast
3:15 PM 26.6 °F 22.6 °F -0.4 °F 31% 30.45 in 10.0 mi NNW 3.5 mph - N/A   Overcast
3:35 PM 26.6 °F - -0.4 °F 31% 30.45 in 10.0 mi Calm Calm - N/A   Overcast
3:55 PM 26.6 °F - -2.2 °F 29% 30.44 in 10.0 mi Calm Calm - N/A   Overcast
4:15 PM 26.6 °F - -0.4 °F 31% 30.44 in 10.0 mi Calm Calm - N/A   Overcast
4:35 PM 26.6 °F - -0.4 °F 31% 30.43 in 10.0 mi Calm Calm - N/A   Overcast
4:55 PM 26.6 °F - -0.4 °F 31% 30.43 in 10.0 mi Calm Calm - N/A   Overcast
5:15 PM 26.6 °F - -0.4 °F 31% 30.43 in 10.0 mi Calm Calm - N/A   Overcast
5:35 PM 26.6 °F - -0.4 °F 31% 30.44 in 10.0 mi Calm Calm - N/A   Overcast
5:55 PM 26.6 °F - -0.4 °F 31% 30.45 in 10.0 mi Calm Calm - N/A   Overcast
6:35 PM 24.8 °F - 1.4 °F 36% 30.46 in 10.0 mi Calm Calm - N/A   Overcast
6:55 PM 26.6 °F - 1.4 °F 34% 30.46 in 10.0 mi Calm Calm - N/A   Overcast
7:15 PM 26.6 °F - 1.4 °F 34% 30.45 in 10.0 mi Calm Calm - N/A   Overcast
7:35 PM 26.6 °F - 1.4 °F 34% 30.45 in 10.0 mi Calm Calm - N/A   Overcast
7:55 PM 26.6 °F - 1.4 °F 34% 30.46 in 10.0 mi Calm Calm - N/A   Overcast
8:15 PM 24.8 °F - 1.4 °F 36% 30.45 in 10.0 mi Calm Calm - N/A   Overcast
8:35 PM 24.8 °F 20.5 °F -0.4 °F 34% 30.45 in 10.0 mi NE 3.5 mph - N/A   Overcast
8:55 PM 24.8 °F - -0.4 °F 34% 30.45 in 10.0 mi Calm Calm - N/A   Overcast
9:15 PM 24.8 °F - -0.4 °F 34% 30.45 in 10.0 mi Calm Calm - N/A   Overcast
9:35 PM 24.8 °F - -0.4 °F 34% 30.45 in 10.0 mi Calm Calm - N/A   Overcast
9:55 PM 24.8 °F - -0.4 °F 34% 30.44 in 10.0 mi Calm Calm - N/A   Overcast
10:15 PM 24.8 °F 19.1 °F -2.2 °F 31% 30.44 in 10.0 mi SE 4.6 mph - N/A   Overcast
10:35 PM 24.8 °F 19.1 °F -2.2 °F 31% 30.45 in 10.0 mi South 4.6 mph - N/A   Overcast
10:55 PM 24.8 °F 19.1 °F -2.2 °F 31% 30.44 in 10.0 mi South 4.6 mph - N/A   Overcast
11:15 PM 24.8 °F - -2.2 °F 31% 30.45 in 10.0 mi Calm Calm - N/A   Overcast
11:35 PM 24.8 °F - -2.2 °F 31% 30.45 in 10.0 mi Calm Calm - N/A   Overcast
11:55 PM 23.0 °F 18.4 °F -2.2 °F 33% 30.45 in 10.0 mi East 3.5 mph - N/A   Overcast